Location: Vulcan
(50.4000°N, 113.2500°W)
Time: 11:34:25
(UTC-07:00)

A-11 Canister half - Visible Passes

Search period start: 12 November 2019 00:00
Search period end: 22 November 2019 00:00
Orbit: 1514 x 1686 km, 47.2° (Epoch: 11 November)

Date Brightness Start Highest point End Pass type
(mag) Time Alt. Az. Time Alt. Az. Time Alt. Az.
12 Nov 10.6 17:36:53 10° SE 17:40:39 13° ESE 17:44:26 10° E visible
12 Nov 9.5 19:34:17 10° SSW 19:43:23 40° SE 19:44:17 39° SE visible
12 Nov 10.1 21:37:25 10° WSW 21:42:30 34° WSW 21:42:30 34° WSW visible
13 Nov 9.6 19:11:31 10° SSW 19:20:31 38° SE 19:22:51 34° ESE visible
13 Nov 9.7 21:14:30 10° WSW 21:21:04 45° SW 21:21:04 45° SW visible
13 Nov 11.2 23:19:12 10° W 23:19:16 10° W 23:19:16 10° W visible
14 Nov 9.7 18:48:48 10° SSW 18:57:39 36° SE 19:01:21 28° ESE visible
14 Nov 9.4 20:51:36 10° WSW 20:59:34 56° SSW 20:59:34 56° SSW visible
14 Nov 11.0 22:56:15 10° W 22:57:46 16° W 22:57:46 16° W visible
15 Nov 9.8 18:26:05 10° SSW 18:34:47 35° SE 18:39:49 23° E visible
15 Nov 9.1 20:28:41 10° WSW 20:38:02 64° S 20:38:02 64° S visible
15 Nov 10.7 22:33:18 10° W 22:36:14 22° W 22:36:14 22° W visible
16 Nov 9.9 18:03:23 10° SSW 18:11:56 33° SE 18:18:14 17° E visible
16 Nov 9.1 20:05:48 10° WSW 20:15:47 64° SSE 20:16:27 63° SE visible
16 Nov 10.3 22:10:21 10° W 22:14:39 30° W 22:14:39 30° W visible
17 Nov 10.0 17:40:42 10° SSW 17:49:04 31° SE 17:56:37 13° E visible
17 Nov 9.1 19:42:55 10° SW 19:52:51 63° SSE 19:54:49 54° ESE visible
17 Nov 10.0 21:47:23 10° W 21:53:02 39° W 21:53:02 39° W visible
18 Nov 10.1 17:18:03 10° S 17:26:14 30° SE 17:34:30 10° E visible
18 Nov 9.2 19:20:03 10° SW 19:29:55 61° SSE 19:33:11 44° ESE visible
18 Nov 9.7 21:24:27 10° W 21:31:22 49° WSW 21:31:22 49° WSW visible
18 Nov 11.2 23:29:22 10° W 23:29:34 11° W 23:29:34 11° W visible
19 Nov 9.3 18:57:10 10° SW 19:07:00 59° SSE 19:11:30 35° E visible
19 Nov 9.3 21:01:31 10° W 21:09:42 62° WSW 21:09:42 62° WSW visible
19 Nov 11.0 23:06:25 10° W 23:07:54 16° W 23:07:54 16° W visible
20 Nov 9.4 18:34:18 10° SW 18:44:05 58° SSE 18:49:49 28° E visible
20 Nov 9.1 20:38:34 10° W 20:48:01 73° SSW 20:48:01 73° SSW visible
20 Nov 10.8 22:43:28 10° W 22:46:13 21° W 22:46:13 21° W visible
21 Nov 9.4 18:11:28 10° SW 18:21:11 56° SSE 18:28:07 22° E visible
21 Nov 9.0 20:15:38 10° W 20:25:46 76° S 20:26:19 74° SSE visible
21 Nov 10.5 22:20:30 10° W 22:24:30 27° W 22:24:30 27° W visible
